sat.trackr.live / text

‹ back to catalog

STARLINK-35060

NORAD 65693 · 2025-212T

PAYLOAD ACTIVE UNKNOWN

§ Identity

Operator
Country
US
Launch date
2025-09-21
Launch site
AFETR
Launch vehicle
Mass (kg)
RCS (m²)

Purposes: comms

External: N2YO · Heavens-Above · Gunter

§ Orbital elements

Epoch: 2026-09-20T23:31:09.752736Z

Period
93.85 min
Inclination
53.1592°
Eccentricity
0.0001424
Mean motion
15.34399966 rev/d
Perigee alt
461.7 km
Apogee alt
463.7 km
Semi-major
6,840.8 km
B*
6.0087e-4
RAAN
147.1394°
Arg perigee
58.7126°
Mean anomaly
301.4016°
Rev number
5,730

§ Raw data

STARLINK-350601 65693U 25212T   26263.97997399  .00019979  00000+0  60087-3 0  99902 65693  53.1592 147.1394 0001424  58.7126 301.4016 15.34399966 57300

JSON: /api/v1/satellites/65693 · /tle

For live sub-satellite position, see the globe view (requires WebGL).

§ Visibility from observer

Set your observer location to see the next 7 days of passes ≥ 10°. The values pass through the URL so the page stays shareable.

No JS? Fill the form by hand. The geolocation button needs JavaScript.